Wind_Speed
19 18 19 24 28 29 32 33 33 33 32 30 26 22 20 19 17 17 17 15 13 12 11 10 9 7 7 5 3 1 2 3 6 2 8 5 3 12 10 11 9 7 8 12 13
18 17 18 20 24 28 31 31 32 33 33 30 26 23 20 18 17 17 16 14 13 12 11 10 9 7 5 3 2 3 5 3 3 4 6 9 8 10 9 16 13 9 6 7 8
17 17 17 19 23 27 30 29 32 32 33 30 26 23 19 18 15 17 16 15 13 11 10 9 8 6 4 4 4 5 4 7 9 8 9 11 13 9 11 15 13 10 8 7 8
17 17 18 20 24 27 28 30 33 31 33 29 26 22 19 17 11 14 15 15 13 11 10 8 7 6 4 1 5 4 8 10 11 12 13 13 15 12 13 15 13 12 11 11 11
16 15 18 19 22 25 28 31 31 30 33 28 25 22 19 16 12 14 15 15 14 12 10 8 8 7 2 6 7 4 12 13 14 15 14 13 15 14 16 14 14 14 14 15 16
14 14 15 18 22 26 29 31 30 32 31 27 24 21 17 14 12 10 14 14 13 13 11 10 10 9 10 10 9 12 16 20 17 14 14 15 16 18 17 15 15 16 17 17 18
10 13 15 21 24 27 28 29 29 32 28 25 22 19 17 16 12 9 12 10 11 12 12 10 10 10 11 12 13 14 15 15 15 14 16 15 20 19 14 13 14 18 19 18 19
16 18 21 23 25 25 26 27 30 30 25 23 20 17 16 12 12 9 12 10 9 11 12 13 12 12 12 13 14 13 10 15 15 14 19 19 22 24 18 18 18 19 21 20 19
22 22 23 24 25 25 25 29 31 26 23 21 18 14 12 13 12 11 8 8 10 13 12 13 14 14 13 11 6 11 13 14 17 15 18 21 16 20 22 19 20 22 25 21 18
22 22 23 24 25 25 29 30 27 24 21 17 12 13 9 12 11 11 10 9 9 10 11 11 11 10 9 7 13 12 9 12 11 17 18 19 23 22 27 24 24 23 22 22 19
22 23 24 24 27 30 31 27 23 21 23 16 12 11 8 9 9 11 10 9 9 8 5 8 8 7 6 13 16 16 19 19 15 19 22 24 26 21 31 29 24 23 22 21 19
21 23 24 27 30 32 30 33 21 21 17 13 10 13 6 10 9 11 10 9 8 4 6 9 9 11 15 17 19 19 14 14 14 19 24 23 22 24 29 30 23 23 21 20 18
20 22 25 27 28 28 26 25 20 18 12 11 9 14 8 9 12 9 10 9 8 7 8 9 11 15 15 18 17 11 12 13 14 15 23 19 21 9 27 29 22 19 19 18 19
19 20 23 26 25 25 21 19 17 14 6 5 7 9 11 6 8 9 9 9 8 8 9 11 17 18 18 17 9 10 15 14 17 12 6 7 10 18 17 19 16 12 13 14 17
15 17 19 22 26 22 20 15 16 12 4 4 11 6 10 12 8 6 9 10 9 7 10 8 14 14 13 9 12 10 13 15 17 16 16 19 11 7 16 18 10 9 9 12 15
15 16 19 19 18 17 15 12 14 3 2 5 4 10 9 8 11 11 9 10 11 14 16 14 22 16 13 17 14 17 15 13 12 8 7 14 20 9 13 13 9 8 8 10 13
17 17 17 19 21 17 13 13 6 4 2 1 3 4 6 7 8 8 10 8 5 4 9 7 13 14 14 16 13 10 5 3 4 4 3 6 9 9 11 13 10 10 9 13 13
17 16 16 16 15 13 12 13 3 5 4 3 3 3 4 9 6 11 7 6 9 11 11 5 5 10 5 9 7 2 7 5 4 2 4 6 8 8 14 12 10 8 13 11 15
16 15 15 15 14 14 14 6 2 3 5 3 1 2 4 6 8 5 4 7 14 7 9 3 6 7 10 9 10 7 6 8 7 17 10 9 10 13 16 13 8 10 9 15 19
10 10 10 10 11 12 14 5 6 5 6 2 2 3 1 4 1 2 5 6 8 10 11 7 4 9 10 9 8 12 7 2 5 3 4 6 13 7 5 9 13 21 14 20 23
9 9 8 9 10 11 8 8 13 12 12 5 6 5 4 3 6 4 5 9 8 5 6 9 7 6 9 5 3 6 12 8 8 9 3 3 2 7 15 14 15 15 18 23 26
8 5 7 10 10 7 9 14 17 13 11 11 12 12 9 8 4 5 7 9 6 3 5 6 5 6 8 11 10 12 10 11 7 4 7 11 20 22 11 17 18 18 17 17 19
10 6 7 10 7 7 12 14 12 11 11 7 8 8 9 10 5 8 10 7 6 6 3 2 3 5 4 5 2 8 10 12 15 19 22 7 12 19 21 20 19 19 20 23 26
9 3 5 11 12 10 10 9 9 7 9 10 8 7 6 7 8 6 6 4 4 4 6 7 9 9 8 10 13 15 14 13 15 12 24 23 31 22 24 30 27 31 29 25 23
6 7 6 1 5 10 8 6 5 5 5 6 5 7 5 2 4 5 10 7 7 6 8 8 11 11 16 18 20 22 24 23 24 30 28 35 28 34 32 31 34 32 29 35 36
4 5 6 4 4 4 3 4 4 4 4 5 6 4 5 7 8 6 6 7 10 8 9 10 9 16 21 16 15 21 25 25 24 24 26 25 26 19 23 28 32 31 34 33 39
3 4 4 4 5 4 8 8 7 6 6 7 7 6 6 7 8 9 10 11 13 15 15 13 11 10 7 10 15 17 4 7 9 8 15 21 24 25 30 30 29 31 33 41 42
Wind_Direction
246 240 229 224 221 215 209 207 201 197 196 188 190 194 194 193 193 196 197 190 190 188 187 186 187 185 181 173 182 194 243 79 127 145 246 260 178 293 300 297 289 280 259 245 254
246 240 228 223 218 206 204 204 196 193 192 185 186 189 191 191 195 203 191 192 190 188 191 188 186 188 187 188 218 253 271 214 213 232 231 279 274 279 296 297 314 301 277 256 249
235 230 216 219 211 199 198 196 191 189 187 183 182 185 190 188 195 197 198 195 193 190 194 193 193 204 220 238 248 253 240 271 284 287 284 282 288 287 269 276 299 297 286 268 258
223 221 214 218 200 192 190 186 185 185 183 180 179 182 186 185 189 197 197 200 197 197 198 197 200 211 226 247 264 287 272 277 293 292 287 278 290 290 288 295 291 290 283 277 272
215 218 219 212 191 179 181 179 179 182 180 176 176 181 186 184 183 193 197 199 201 206 205 204 206 216 227 251 273 249 279 289 295 289 285 284 286 293 289 283 282 278 276 277 279
208 216 207 191 175 169 172 173 172 177 177 172 174 178 182 193 192 188 193 199 205 209 214 214 222 227 231 248 266 272 285 294 292 285 284 285 289 290 288 284 277 276 276 277 281
182 182 175 165 158 161 166 166 167 173 172 168 170 176 184 189 189 189 194 202 211 213 222 227 233 239 256 269 279 284 290 288 288 287 285 289 291 293 296 284 277 277 279 279 279
145 148 149 147 150 154 157 160 164 169 166 164 168 174 186 191 195 195 196 209 216 218 225 226 254 257 261 275 279 280 278 261 282 283 293 293 293 285 289 285 281 279 282 280 281
134 137 139 140 143 145 154 153 159 162 161 161 166 171 191 200 201 210 218 215 221 231 239 241 245 255 262 270 273 272 258 272 239 270 281 287 284 276 281 282 279 282 282 282 277
128 131 133 136 136 145 146 148 155 157 153 157 171 177 204 210 208 214 225 238 235 237 243 251 249 252 255 226 245 289 281 281 297 283 268 277 291 283 286 285 281 274 267 277 278
125 127 130 132 141 141 141 144 151 155 156 145 170 181 191 204 216 226 233 241 246 244 241 246 247 253 257 244 242 263 283 291 288 278 276 284 285 259 272 278 273 263 261 269 273
122 127 133 140 140 141 150 154 149 160 161 166 187 201 211 211 222 226 229 235 236 223 261 259 277 246 250 257 265 277 281 279 279 272 278 289 280 273 270 281 277 265 255 256 256
121 130 135 135 140 148 157 154 150 157 154 182 201 207 215 212 213 221 228 232 237 228 243 249 269 264 260 269 284 284 284 267 267 282 286 298 305 291 239 267 282 265 251 242 251
113 124 132 137 147 155 160 158 152 148 132 198 216 216 217 218 233 232 233 233 244 228 229 253 251 263 274 273 264 271 259 254 275 290 288 281 290 297 255 265 280 267 254 246 252
112 126 141 151 152 157 158 156 154 154 191 197 219 217 220 219 233 246 242 243 229 221 254 240 271 274 284 259 239 250 264 277 282 277 289 275 242 289 234 256 281 280 268 253 255
122 135 145 154 151 152 148 152 160 187 148 187 221 218 224 235 251 255 266 262 265 265 268 255 263 271 239 255 259 274 283 292 289 279 258 283 207 240 248 286 288 269 278 274 272
136 144 149 154 151 153 152 148 152 263 153 296 223 194 182 275 268 269 270 281 244 301 270 252 291 283 263 260 279 274 280 265 232 196 259 128 196 244 247 268 257 286 299 299 275
145 147 151 156 159 158 157 162 253 113 167 192 168 177 146 226 263 281 271 275 276 246 251 251 227 265 311 226 198 279 217 278 304 8 353 215 239 238 262 276 288 287 305 315 305
155 155 157 162 166 171 171 184 260 140 217 186 165 214 227 290 227 279 271 242 237 258 203 279 231 255 279 279 219 219 226 241 286 289 276 252 248 245 263 271 239 313 307 321 317
162 163 168 173 179 181 190 229 262 264 261 243 167 239 266 232 293 258 233 274 269 247 226 241 275 275 292 265 233 228 234 259 232 270 282 293 332 50 326 283 292 304 289 312 316
162 168 180 185 185 192 199 249 254 268 260 248 209 225 222 212 227 242 246 277 282 277 233 241 234 281 307 268 239 253 235 244 254 267 277 319 218 343 321 302 300 306 311 315 309
187 181 207 206 199 196 234 255 255 268 265 255 253 249 218 231 229 218 229 256 290 296 239 243 245 248 262 275 266 246 225 234 242 276 260 283 282 288 303 312 302 305 299 288 280
170 203 201 189 158 229 249 248 261 254 250 246 244 242 246 242 232 234 259 269 268 257 251 211 235 307 256 275 346 267 260 256 245 258 258 259 268 311 323 330 334 321 307 298 290
153 76 172 182 183 164 257 256 242 248 240 234 235 227 225 232 225 255 261 266 255 263 255 255 246 234 265 296 295 283 277 285 275 256 267 258 280 289 290 306 304 296 294 291 291
154 171 175 244 222 220 226 245 248 233 224 219 227 233 213 215 269 252 264 276 277 275 274 271 273 260 266 281 285 282 282 283 263 268 264 287 287 294 299 297 299 301 303 306 310
175 163 190 203 229 211 215 230 234 244 244 228 239 240 230 201 223 216 275 284 279 297 287 280 273 286 294 298 289 289 295 289 283 280 275 281 290 293 285 290 295 295 300 304 311
202 197 200 205 209 175 241 248 243 256 249 253 257 249 245 272 270 273 278 281 281 288 291 287 286 294 275 291 299 305 347 269 269 282 278 279 297 283 284 291 294 300 307 309 311
Height
3084 3086 3087 3090 3094 3099 3105 3111 3118 3125 3132 3138 3144 3150 3154 3158 3161 3163 3165 3169 3171 3174 3176 3178 3180 3182 3183 3185 3186 3186 3187 3185 3186 3188 3188 3189 3189 3187 3186 3186 3186 3186 3185 3185 3185
3081 3083 3085 3087 3091 3095 3102 3109 3116 3123 3131 3137 3143 3149 3154 3157 3160 3162 3166 3168 3170 3173 3176 3177 3179 3181 3183 3184 3185 3186 3186 3186 3187 3187 3188 3187 3187 3186 3186 3182 3183 3183 3182 3182 3182
3078 3080 3083 3085 3088 3093 3099 3107 3115 3122 3130 3137 3142 3148 3153 3156 3159 3162 3164 3167 3170 3172 3175 3177 3178 3180 3182 3183 3184 3184 3185 3185 3185 3186 3186 3185 3184 3185 3183 3181 3181 3180 3180 3179 3179
3075 3078 3080 3083 3086 3091 3098 3105 3114 3122 3130 3136 3141 3147 3152 3155 3160 3161 3164 3166 3169 3172 3174 3176 3178 3179 3181 3182 3183 3183 3183 3183 3184 3184 3183 3182 3181 3182 3181 3179 3179 3178 3177 3177 3177
3074 3076 3079 3082 3086 3090 3098 3105 3113 3122 3130 3136 3141 3147 3152 3155 3158 3160 3163 3165 3168 3171 3173 3175 3176 3178 3180 3180 3181 3181 3180 3181 3181 3181 3180 3179 3178 3178 3177 3177 3176 3175 3175 3174 3174
3072 3075 3078 3082 3086 3091 3099 3106 3114 3123 3131 3136 3141 3146 3151 3155 3157 3159 3162 3164 3167 3169 3172 3173 3175 3177 3177 3178 3179 3179 3178 3177 3177 3177 3177 3176 3175 3174 3174 3173 3173 3172 3171 3171 3170
3071 3075 3079 3082 3087 3093 3101 3108 3116 3125 3132 3136 3141 3146 3150 3154 3156 3158 3161 3164 3166 3168 3171 3173 3174 3175 3176 3176 3177 3176 3175 3174 3174 3174 3173 3173 3171 3170 3170 3169 3169 3168 3167 3167 3166
3073 3077 3081 3085 3090 3097 3103 3111 3119 3128 3133 3137 3141 3146 3150 3153 3156 3158 3160 3163 3165 3167 3169 3171 3172 3173 3174 3175 3174 3174 3174 3171 3170 3170 3170 3171 3168 3164 3166 3166 3165 3164 3162 3162 3161
3078 3081 3085 3089 3094 3100 3107 3114 3123 3130 3135 3138 3143 3146 3149 3152 3156 3158 3160 3162 3164 3165 3167 3169 3170 3171 3172 3172 3173 3171 3170 3170 3169 3168 3166 3166 3166 3163 3162 3162 3161 3160 3157 3157 3157
3082 3085 3089 3093 3097 3105 3111 3118 3126 3132 3136 3140 3144 3149 3150 3152 3154 3156 3159 3160 3162 3164 3165 3166 3167 3168 3169 3170 3170 3170 3169 3169 3168 3165 3163 3162 3160 3159 3157 3158 3157 3156 3154 3152 3152
3087 3090 3093 3097 3104 3109 3116 3123 3132 3136 3135 3138 3143 3145 3148 3151 3153 3155 3157 3159 3160 3162 3162 3163 3165 3165 3167 3168 3168 3167 3167 3166 3166 3162 3161 3160 3158 3158 3152 3152 3153 3151 3151 3149 3148
3092 3094 3099 3103 3107 3113 3120 3121 3128 3134 3138 3140 3143 3146 3148 3149 3152 3153 3155 3158 3158 3160 3161 3163 3163 3164 3165 3165 3165 3164 3164 3163 3164 3159 3158 3156 3151 3151 3147 3146 3147 3146 3146 3146 3146
3098 3101 3104 3108 3113 3119 3125 3128 3131 3135 3138 3142 3143 3145 3148 3149 3149 3151 3154 3155 3157 3158 3160 3161 3162 3162 3162 3161 3161 3161 3161 3160 3160 3157 3153 3151 3145 3142 3143 3141 3141 3141 3142 3143 3143
3104 3106 3109 3112 3120 3123 3127 3131 3133 3136 3140 3144 3144 3145 3147 3148 3150 3151 3152 3155 3155 3157 3158 3158 3157 3157 3158 3158 3159 3158 3157 3157 3156 3156 3155 3153 3146 3141 3137 3138 3138 3138 3139 3140 3140
3108 3110 3114 3119 3121 3125 3130 3133 3135 3138 3139 3144 3142 3144 3145 3148 3149 3149 3150 3152 3153 3155 3156 3157 3154 3154 3155 3155 3154 3155 3154 3154 3154 3152 3152 3147 3150 3138 3135 3135 3136 3136 3136 3137 3137
3112 3115 3118 3122 3126 3129 3131 3134 3137 3141 3138 3141 3141 3142 3145 3146 3147 3148 3149 3150 3151 3151 3151 3152 3150 3152 3151 3151 3152 3152 3152 3151 3150 3150 3148 3138 3143 3137 3134 3133 3133 3134 3135 3136 3136
3115 3118 3121 3124 3127 3130 3133 3135 3140 3139 3141 3142 3141 3142 3144 3146 3145 3145 3146 3147 3149 3149 3147 3149 3148 3147 3148 3149 3149 3149 3150 3149 3150 3149 3144 3140 3142 3136 3133 3133 3132 3131 3132 3133 3133
3117 3119 3122 3125 3128 3131 3134 3137 3138 3138 3139 3140 3141 3141 3144 3145 3144 3143 3144 3145 3146 3147 3148 3148 3147 3145 3146 3147 3147 3148 3149 3149 3147 3143 3141 3139 3136 3132 3132 3131 3131 3130 3130 3130 3131
3118 3120 3123 3126 3128 3131 3135 3136 3136 3137 3138 3139 3140 3141 3142 3142 3143 3142 3143 3144 3142 3144 3146 3145 3144 3144 3144 3144 3146 3146 3147 3148 3146 3143 3139 3135 3132 3130 3129 3129 3128 3128 3127 3127 3126
3119 3122 3124 3126 3129 3131 3134 3136 3135 3136 3137 3139 3140 3141 3141 3140 3142 3142 3142 3141 3140 3141 3142 3143 3144 3142 3142 3142 3144 3144 3145 3146 3145 3143 3138 3129 3130 3128 3129 3129 3128 3125 3123 3122 3122
3120 3122 3124 3126 3128 3131 3133 3133 3133 3134 3136 3138 3138 3139 3140 3140 3140 3142 3141 3141 3139 3140 3140 3141 3142 3142 3141 3140 3141 3141 3142 3144 3144 3142 3138 3136 3131 3129 3127 3126 3123 3122 3119 3117 3114
3120 3122 3123 3125 3129 3130 3132 3130 3132 3132 3133 3134 3135 3135 3137 3137 3138 3139 3139 3138 3138 3138 3138 3139 3139 3139 3139 3138 3139 3140 3140 3141 3141 3139 3137 3135 3128 3127 3127 3126 3123 3121 3119 3116 3113
3118 3120 3122 3124 3127 3129 3128 3129 3128 3129 3130 3131 3132 3132 3133 3135 3137 3136 3135 3136 3136 3136 3136 3138 3138 3138 3136 3138 3136 3135 3136 3137 3137 3135 3132 3134 3129 3125 3126 3121 3118 3114 3111 3110 3110
3120 3121 3123 3123 3125 3126 3126 3126 3126 3127 3127 3128 3129 3130 3131 3132 3133 3133 3133 3134 3134 3135 3135 3136 3136 3137 3137 3136 3135 3134 3134 3134 3133 3132 3125 3126 3123 3126 3123 3118 3113 3111 3108 3104 3100
3119 3121 3122 3124 3125 3125 3125 3126 3125 3126 3127 3127 3129 3129 3130 3132 3132 3132 3132 3133 3133 3133 3134 3134 3133 3133 3132 3131 3130 3129 3127 3128 3126 3124 3123 3118 3120 3117 3115 3111 3109 3105 3102 3096 3094
3119 3120 3121 3123 3124 3124 3125 3125 3125 3125 3127 3127 3128 3128 3129 3130 3130 3131 3131 3131 3130 3131 3131 3131 3130 3128 3127 3126 3124 3122 3121 3119 3118 3117 3116 3114 3112 3112 3108 3106 3103 3100 3096 3093 3088
3119 3120 3121 3122 3123 3124 3125 3124 3124 3125 3126 3126 3127 3127 3128 3129 3129 3129 3129 3129 3129 3128 3128 3127 3126 3125 3123 3123 3121 3118 3114 3114 3114 3114 3113 3110 3110 3107 3103 3100 3096 3094 3091 3085 3082